Regional Weather Roundup
Issued by NWS

Home | Current Version | Previous Version | Text Only | Print | Product List | Glossary Off
Versions: 1 2 3 4 5 6 7 8 9 10 11 12 13 14 15 16 17 18 19 20 21 22 23 24 25 26 27 28 29 30 31 32 33 34 35 36 37 38 39 40 41 42 43 44 45 46 47 48 49 50

000
ASUS43 KDMX 061207
RWRIA

WEATHER ROUNDUP FOR IOWA
NATIONAL WEATHER SERVICE DES MOINES IA
700 AM CDT MON JUL 06 2015

NOTE: "FAIR" INDICATES FEW OR NO CLOUDS BELOW 12,000 FEET WITH NO
SIGNIFICANT WEATHER AND/OR OBSTRUCTIONS TO VISIBILITY.

* - THESE STATIONS ARE NOT NWS STATIONS...THUS NOT UNDER NWS
QUALITY CONTROL.  THEY ALSO DO NOT REPORT WEATHER SUCH
AS PRECIPITATION OR FOG.

IAZ001>003-012>014-020>022-031>034-043>046-061300-
   NORTHWEST IOWA

CITY           SKY/WX    TMP DP  RH WIND       PRES   REMARKS
CARROLL *      SUNNY     72  70  94 S7        29.82R
CHEROKEE *     LGT RAIN  69  69  99 S3        29.87F
DENISON *      SUNNY     70  68  94 W7        29.82F
LE MARS *      CLOUDY    70  70 100 S8        29.87F
ORANGE CITY *  RAIN      68  68 100 S7        29.86R
SHELDON *      LGT RAIN  70  70 100 S12       29.85R
SIOUX CITY     LGT RAIN  71  69  93 CALM      29.87R
6HR MIN TEMP:  71; 6HR MAX TEMP:  81; 6HR PCP:  0.18;

SPENCER        LGT RAIN  70  66  87 S8        29.85R
6HR MIN TEMP:  69; 6HR MAX TEMP:  78; 6HR PCP:  0.63;

STORM LAKE *   CLOUDY    68  68 100 NW7       29.86F
$$

IAZ055>058-069>071-079>083-090>094-061300-
   SOUTHWEST IOWA

CITY           SKY/WX    TMP DP  RH WIND       PRES   REMARKS
ATLANTIC *     PTSUNNY   77  72  83 N6        29.85R
AUDUBON *      SUNNY     72  66  83 CALM      29.86R
CLARINDA *     PTSUNNY   77  77 100 S7        29.88R
COUNCIL BLFS * PTCLDY    73  72  94 NW10      29.87F
CRESTON *      PTSUNNY   75  72  88 SW12      29.88R
HARLAN  *      SUNNY     72  72 100 W8        29.88F
LAMONI         CLOUDY    74  69  85 S9        29.89R
6HR MIN TEMP:  73; 6HR MAX TEMP:  77;

RED OAK *      PTSUNNY   77  73  88 W7        29.86R
SHENANDOAH *   CLOUDY    79  73  83 W9        29.86S HX  82
$$

IAZ047>049-059>061-072>074-084-061300-
   CENTRAL IOWA

CITY           SKY/WX    TMP DP  RH WIND       PRES   REMARKS
AMES           TSTM      70  68  93 NE8       29.86R VSB 3/4
6HR MIN TEMP:  70; 6HR MAX TEMP:  75; 6HR PCP:  0.44;

ANKENY *       RAIN      73  72  94 CALM      29.85R VSB 1
CHARITON *     PTSUNNY   73  70  88 S14       29.86R
DES MOINES     TSTM      77  72  84 W9        29.86R
6HR MIN TEMP:  76; 6HR MAX TEMP:  79; 6HR PCP:  0.08;

GRINNELL*      HVY RAIN  69  68  95 E7        29.86F
KNOXVILLE *    PTSUNNY   73  68  83 S8        29.84F
MARSHALLTOWN   TSTM      70  66  87 S9        29.90R FOG
6HR MIN TEMP:  67; 6HR MAX TEMP:  74; 6HR PCP:  1.74;

PELLA *        CLOUDY    73  72  96 SE6       29.86F
PERRY *          N/A     73  70  88 W6        29.84R
$$

IAZ004>006-015-016-023>025-035-036-061300-
   NORTH CENTRAL IOWA

CITY           SKY/WX    TMP DP  RH WIND       PRES   REMARKS
ALGONA *       DRIZZLE   70  68  94 CALM      29.84F
CLARION *      LGT RAIN  70  68  94 NW6       29.86F
ESTHERVILLE    CLOUDY    69  67  93 SE6       29.81F
6HR MIN TEMP:  69; 6HR MAX TEMP:  75; 6HR PCP:  0.35;

FORT DODGE *   CLOUDY    68  64  88 NE7       29.84F
MASON CITY     LGT RAIN  71  69  93 W8        29.88R
6HR MIN TEMP:  71; 6HR MAX TEMP:  78; 6HR PCP:  0.22;

FOREST CITY *  RAIN      68  68 100 CALM      29.86S
IOWA FALLS *   CLOUDY    72  64  78 SW8G21    29.91R
$$

IAZ007>011-017>019-026>030-037>042-050>054-066-061300-
   NORTHEAST IOWA

CITY           SKY/WX    TMP DP  RH WIND       PRES   REMARKS
CEDAR RAPIDS   CLOUDY    71  70  96 S10       29.87F FOG
6HR MIN TEMP:  70; 6HR MAX TEMP:  72;

CHARLES CITY * CLOUDY    72  72 100 W20       29.89R FOG
CLINTON *      CLOUDY    70  64  83 SE12      29.93F
DECORAH *        N/A    N/A N/A N/A MISG        N/A
DUBUQUE        CLOUDY    69  66  90 S13       29.89F FOG
6HR MIN TEMP:  67; 6HR MAX TEMP:  69;

MONTICELLO *   MOSUNNY   70  70 100 S8        29.88S FOG
OELWEIN *        N/A     72  70  94 S10       29.87R FOG
WATERLOO       CLOUDY    71  67  87 S8        29.84R
6HR MIN TEMP:  71; 6HR MAX TEMP:  73; 6HR PCP:  0.01;

$$

IAZ064-065-067-068-078-061300-
   EAST CENTRAL IOWA

CITY           SKY/WX    TMP DP  RH WIND       PRES   REMARKS
DAVENPORT      CLOUDY    72  68  87 S13       29.91F FOG
6HR MIN TEMP:  70; 6HR MAX TEMP:  72;

IOWA CITY      CLOUDY    72  69  90 CALM      29.90S FOG
6HR MIN TEMP:  69; 6HR MAX TEMP:  72;

MT. PLEASANT * CLOUDY    74  69  84 S10       29.91S HAZE
MUSCATINE *    PTSUNNY   72  70  94 SE5       29.90S FOG
QUAD CITIES    CLOUDY    73  68  84 S9        29.91F HAZE
6HR MIN TEMP:  68; 6HR MAX TEMP:  73;

$$

IAZ062-063-075>077-085>089-095>099-061300-
   SOUTHEAST IOWA

CITY           SKY/WX    TMP DP  RH WIND       PRES   REMARKS
BURLINGTON     CLOUDY    73  71  93 S8        29.94R FOG
6HR MIN TEMP:  71; 6HR MAX TEMP:  75;

FAIRFIELD *    SUNNY     73  68  83 S9G17     29.88F
FORT MADISON * MOSUNNY   72  70  94 S9        29.94R FOG
KEOKUK *       SUNNY     73  72  94 S12       29.93R
OSKALOOSA *      N/A     70  68  92 S5        29.87F
CENTERVILLE *  SUNNY     73  68  83 S12       29.90S
OTTUMWA        CLOUDY    72  69  90 S10       29.84F
6HR MIN TEMP:  72; 6HR MAX TEMP:  73;

WASHINGTON *   SUNNY     72  70  94 S8        29.90F FOG
$$

ABBREVIATIONS USED IN REMARKS
   TC - TEMPERATURES IN CELSIUS
  WCI - WIND CHILL INDEX
   HX - HEAT INDEX
  VSB - VISIBILITY
$$



USA.gov is the U.S. government's official web portal to all federal, state and local government web resources and services.